Aulavik National Park,

6:09 AM MDT on September 26, 2017 (GMT -0600)
Aulavik National Park

Weather History for CWSQ - March, 2014

Change the Weather History Date:

Thursday, March 27, 2014

  Actual Average Record
Temperature  
Mean Temperature -12 °F -  
Max Temperature -3 °F - - ()
Min Temperature -22 °F - - ()
Degree Days  
Heating Degree Days 78    
Moisture  
Dew Point -18 °F    
Average Humidity 78    
Maximum Humidity 82    
Minimum Humidity 65    
Precipitation  
Precipitation 0.00 in - - ()
Sea Level Pressure  
Sea Level Pressure 30.01 in    
Wind  
Wind Speed 6 mph ()    
Max Wind Speed 12 mph    
Max Gust Speed -    
T = Trace of Precipitation, MM = Missing Value Source: Averaged Metar Reports

Daily Weather History Graph

Daily Weather History Graph

Search for Another Location

Airport or City:

Trip Planner

Search our weather history database for the weather conditions in past years. The results will help you decide how hot, cold, wet, or windy it might be!

Date:

Astronomy

Mar. 27, 2014 Rise Set
Actual Time 7:14 AM MDT 8:58 PM MDT
Civil Twilight 5:52 AM MDT 10:22 PM MDT
Nautical Twilight 3:35 AM MDT 12:48 AM MDT
Astronomical Twilight Sun does not set Sun does not set
Moon 7:37 AM MDT (3/27) 3:39 PM MDT (3/27)
Length of Visible Light 16h 29m
Length of Day
13h 44m
Waning Crescent, 12% of the Moon is Illuminated
Mar 27
Waning Crescent
Mar 30
New
Apr 7
First Quarter
Apr 15
Full
Apr 22
Last Quarter

Hourly Weather History & Observations

Time (MDT) Temp. Windchill Dew Point Humidity Pressure Visibility Wind Dir Wind Speed Gust Speed Precip Events Conditions
12:00 AM -19 °F - -24 °F 65% 30.08 in - SSE 5.8 mph - -  
12:00 AM -19.1 °F -32.2 °F -24.2 °F 78% 30.08 in - SSE 4.6 mph - N/A   Unknown
1:00 AM -20.6 °F - -26.0 °F 76% 30.09 in - Calm Calm - N/A   Unknown
2:00 AM -21.6 °F - -27.4 °F 75% 30.08 in - South 1.2 mph - N/A   Unknown
3:00 AM -19.3 °F -34.5 °F -24.5 °F 77% 30.08 in - SSE 5.8 mph - N/A   Unknown
5:00 AM -17.0 °F -33.4 °F -22.0 °F 78% 30.07 in - SSE 6.9 mph - N/A   Unknown
6:00 AM -16 °F - -20 °F 70% 30.05 in - SE 10.4 mph - -  
6:00 AM -15.5 °F -35.5 °F -20.4 °F 79% 30.05 in - SE 10.4 mph - N/A   Unknown
7:00 AM -13.0 °F -32.4 °F -17.7 °F 80% 30.03 in - SE 10.4 mph - N/A   Unknown
8:00 AM -11.6 °F -31.6 °F -16.2 °F 80% 30.02 in - SSE 11.5 mph - N/A   Unknown
9:00 AM -12.5 °F -28.0 °F -17.1 °F 80% 30.01 in - SSE 6.9 mph - N/A   Unknown
10:00 AM -13.5 °F -31.9 °F -18.4 °F 79% 29.99 in - SE 9.2 mph - N/A   Unknown
11:00 AM -13.9 °F -33.5 °F -18.9 °F 78% 29.97 in - SE 10.4 mph - N/A   Unknown
12:00 PM -12 °F - -17 °F 66% 29.96 in - SE 11.5 mph - -  
12:00 PM -12.3 °F -31.5 °F -17.1 °F 79% 29.96 in - SSE 10.4 mph - N/A   Unknown
1:00 PM -11.0 °F -26.2 °F -15.9 °F 79% 29.96 in - SSE 6.9 mph - N/A   Unknown
2:00 PM -7.1 °F -19.9 °F -11.2 °F 82% 29.96 in - SSE 5.8 mph - N/A   Unknown
3:00 PM -9.4 °F - -14.4 °F 78% 29.95 in - ENE 2.3 mph - N/A   Unknown
4:00 PM -4.2 °F - -8.5 °F 82% 29.95 in - North 2.3 mph - N/A   Unknown
5:00 PM -5.8 °F -23.4 °F -10.5 °F 80% 29.96 in - North 10.4 mph - N/A   Unknown
6:00 PM -8 °F - -12 °F 73% 29.97 in - North 9.2 mph - -  
6:00 PM -7.8 °F -25.9 °F -12.1 °F 81% 29.97 in - North 10.4 mph - N/A   Unknown
7:00 PM -8.3 °F -24.3 °F -12.6 °F 81% 29.97 in - NNW 8.1 mph - N/A   Unknown
8:00 PM -10.1 °F -25.1 °F -14.4 °F 81% 29.99 in - North 6.9 mph - N/A   Unknown
9:00 PM -12.5 °F -26.3 °F -17.1 °F 80% 30.01 in - NNE 5.8 mph - N/A   Unknown
10:00 PM -13.0 °F -22.7 °F -17.5 °F 80% 30.02 in - NNE 3.5 mph - N/A   Unknown
11:00 PM -11.6 °F -25.3 °F -15.9 °F 81% 30.05 in - NNE 5.8 mph - N/A   Unknown